Weather in Naberezhnie Chelny

Russia / Republic of Tatarstan     55°44′36″N   52°23′45″E
temp.,
°C
wind,
m/s
gust,
m/s
humid.,
%
clouds,
%
prec.,
mm/h
press.,
hPa
HPBL,
m
10 may, mon
mon1000:00+16sse41155100 0.0 1016238
03:00+14sse3560100 0.0 101785
06:00+16se366085 0.0 1018163
09:00+21se4542100 0.0 1019563
12:00+24se4433100 0.0 10202163
15:00+24ese3331100 0.0 10202421
18:00+21e234932 0.0 102143
21:00+17e225431 0.0 102211
11 may, tue
tue1100:00+15ene2258100 0.0 102311
03:00+14ne2262100 0.0 102419
06:00+16ene2461100 0.0 1025119
09:00+21e354182 0.0 1026464
12:00+23e453599 0.0 10261447
15:00+24e4535100 0.0 10261738
18:00+21e3451100 0.0 102784
21:00+17ese235849 0.0 102828
12 may, wed
wed1200:00+15se22615 0.0 102811
03:00+14ene22600 0.0 102812
06:00+17e24541 0.0 1029144
09:00+22ese34390 0.0 1029693
12:00+24ese45332 0.0 10291927
15:00+25ese343583 0.0 10282189
18:00+22ese225163 0.0 102827
21:00+18se115966 0.0 102811
13 may, thu
thu1300:00+16e11628 0.0 102811
03:00+15e116850 0.0 102811
06:00+18se1259100 0.0 1029103
09:00+23ese344097 0.0 1028657
12:00+25se4537100 0.0 10282234
15:00+26se3433100 0.0 10272409
18:00+23ese22485 0.0 102623
21:00+18se33595 0.0 102645
14 may, fri
fri1400:00+17sse22645 0.0 102722
03:00+16s11645 0.0 102611
06:00+19s23532 0.0 1027130
09:00+24s34365 0.0 1026869
12:00+26ssw443069 0.0 10251766
15:00+27sw343134 0.0 10241778
18:00+23wsw2350100 0.0 102339
21:00+19s2257100 0.0 102316